FW9033 Weather Reports


time (UTC)temp
C
wind
direction
speed
KPH
gust
KPH
rain 1hr
cm
rain 24hr
cm
rain mn
cm
humidity
%
barometer
mb
20260508013513 15 52 3.2 4.8 0.00 0.00 0.00 45 1009.5
20260508013010 15 7 1.6 3.2 0.00 0.00 0.00 45 1009.1
20260508012507 15 353 3.2 4.8 0.00 0.00 0.00 46 1009.2
20260508012004 15 28 1.6 3.2 0.00 0.00 0.00 45 1009.2
20260508011503 15 48 0.0 0.0 0.00 0.00 0.00 45 1008.8
20260508011000 15 39 1.6 1.6 0.00 0.00 0.00 45 1008.7
20260508010456 -17 0.0 0.0 0.00 0.00 0.00 1008.5
20260508005954 15 314 1.6 4.8 0.00 0.00 0.00 45 1008.4
20260508005450 15 314 1.6 4.8 0.00 0.00 0.00 45 1008.7
20260508004947 15 21 4.8 4.8 0.00 0.00 0.00 45 1008.3
20260508004443 15 328 4.8 4.8 0.00 0.00 0.00 44 1008.5
20260508003940 15 40 1.6 1.6 0.00 0.00 0.00 44 1008.5
20260508003437 15 40 1.6 1.6 0.00 0.00 0.00 44 1008.5
20260508002934 16 15 4.8 4.8 0.00 0.00 0.00 44 1008.2
20260508002430 16 52 1.6 3.2 0.00 0.00 0.00 44 1008.0
20260508001926 16 334 4.8 4.8 0.00 0.00 0.00 43 1008.0
20260508001423 16 66 0.0 0.0 0.00 0.00 0.00 43 1007.9
20260508000919 16 351 3.2 4.8 0.00 0.00 0.00 43 1007.7
20260508000415 16 36 4.8 4.8 0.00 0.00 0.00 43 1007.9
20260507235913 16 51 0.0 0.0 0.00 0.00 0.00 43 1007.5
20260507235409 17 48 1.6 1.6 0.00 0.00 0.00 42 1007.5
20260507234906 17 15 1.6 3.2 0.00 0.00 0.00 42 1007.6
20260507234403 17 34 3.2 3.2 0.00 0.00 0.00 42 1007.5
20260507233900 17 20 3.2 4.8 0.00 0.00 0.00 42 1007.7
20260507233357 17 47 1.6 1.6 0.00 0.00 0.00 50 1007.4
20260507232855 16 354 8.0 9.7 0.00 0.00 0.00 52 1007.3
20260507232351 17 6 3.2 3.2 0.00 0.00 0.00 63 1007.4
20260507231849 17 6 1.6 1.6 0.00 0.00 0.00 63 1007.0
20260507231345 16 102 3.2 3.2 0.00 0.00 0.00 63 1007.3
20260507230841 17 22 4.8 4.8 0.00 0.00 0.00 63 1007.1
20260507230339 17 48 1.6 1.6 0.00 0.00 0.00 63 1007.2
20260507225838 17 25 3.2 3.2 0.00 0.00 0.00 63 1006.8
20260507225335 17 97 1.6 3.2 0.00 0.00 0.00 62 1007.1
20260507224831 17 352 3.2 4.8 0.00 0.00 0.00 61 1006.7
20260507224328 17 145 1.6 1.6 0.00 0.00 0.00 60 1006.6
20260507223824 17 90 1.6 1.6 0.00 0.00 0.00 61 1006.8
20260507223320 17 135 3.2 3.2 0.00 0.00 0.00 61 1006.5
20260507222818 17 129 1.6 3.2 0.00 0.00 0.00 61 1006.5
20260507222314 17 53 0.0 1.6 0.00 0.00 0.00 60 1006.6
20260507221811 17 114 3.2 4.8 0.00 0.00 0.00 59 1006.5
20260507221307 18 109 1.6 1.6 0.00 0.00 0.00 60 1006.1
20260507220803 18 127 4.8 4.8 0.00 0.00 0.00 57 1006.2
20260507220302 18 124 3.2 4.8 0.00 0.00 0.00 55 1006.0
20260507215758 19 148 4.8 9.7 0.00 0.00 0.00 53 1005.9
20260507215256 19 111 3.2 3.2 0.00 0.00 0.00 46 1006.1
20260507214752 19 105 3.2 3.2 0.00 0.00 0.00 44 1006.0
20260507214250 18 100 4.8 4.8 0.00 0.00 0.00 46 1006.0
20260507213745 18 40 1.6 3.2 0.00 0.00 0.00 46 1005.8
20260507213242 18 148 4.8 4.8 0.00 0.00 0.00 45 1006.0
20260507212738 18 100 4.8 8.0 0.00 0.00 0.00 44 1005.7
20260507212235 20 77 1.6 3.2 0.00 0.00 0.00 41 1006.1
20260507211732 20 74 0.0 1.6 0.00 0.00 0.00 40 1005.9
20260507211228 19 41 0.0 0.0 0.00 0.00 0.00 38 1005.8
20260507210725 20 71 1.6 1.6 0.00 0.00 0.00 39 1005.9
20260507210222 -17 0.0 0.0 0.00 0.00 0.00 1005.8
20260507205718 20 133 4.8 8.0 0.00 0.00 0.00 40 1005.7
20260507205215 20 133 4.8 8.0 0.00 0.00 0.00 40 1006.0
20260507204711 19 41 1.6 3.2 0.00 0.00 0.00 41 1005.8
20260507204209 -17 0.0 0.0 0.00 0.00 0.00 1005.9
20260507203707 18 78 3.2 3.2 0.00 0.00 0.00 45 1006.0
20260507203204 18 78 3.2 3.2 0.00 0.00 0.00 45 1006.0
20260507202700 19 109 4.8 4.8 0.00 0.00 0.00 45 1006.0
20260507202156 19 66 1.6 1.6 0.00 0.00 0.00 43 1006.1
20260507201651 20 39 1.6 1.6 0.00 0.00 0.00 44 1005.9
20260507201148 19 93 3.2 3.2 0.00 0.00 0.00 44 1006.0
20260507200644 19 62 0.0 0.0 0.00 0.00 0.00 43 1006.0
20260507200140 19 86 1.6 3.2 0.00 0.00 0.00 46 1006.1
20260507195637 20 70 1.6 1.6 0.00 0.00 0.00 46 1006.3
20260507195134 21 18 4.8 4.8 0.00 0.00 0.00 41 1006.1
20260507194631 21 18 4.8 4.8 0.00 0.00 0.00 41 1006.1
20260507194126 20 333 8.0 9.7 0.00 0.00 0.00 41 1006.2
20260507193624 20 315 8.0 9.7 0.00 0.00 0.00 42 1006.5
20260507193121 21 72 0.0 0.0 0.00 0.00 0.00 40 1006.7
20260507192617 20 33 1.6 1.6 0.00 0.00 0.00 41 1006.8
20260507192114 20 86 0.0 0.0 0.00 0.00 0.00 42 1006.5
20260507191610 20 93 3.2 3.2 0.00 0.00 0.00 41 1006.7
20260507191107 20 44 0.0 0.0 0.00 0.00 0.00 44 1006.7
20260507190604 20 42 0.0 0.0 0.00 0.00 0.00 42 1006.8
20260507185601 20 113 8.0 12.9 0.00 0.00 0.00 45 1006.9
20260507185057 19 43 3.2 3.2 0.00 0.00 0.00 44 1007.1
20260507184555 18 93 1.6 3.2 0.00 0.00 0.00 45 1007.1
20260507184053 19 30 1.6 3.2 0.00 0.00 0.00 43 1007.3
20260507183548 20 17 8.0 9.7 0.00 0.00 0.00 41 1007.2
20260507183046 20 65 1.6 1.6 0.00 0.00 0.00 44 1007.1
20260507182542 20 340 3.2 4.8 0.00 0.00 0.00 42 1007.3
20260507182038 20 72 1.6 1.6 0.00 0.00 0.00 42 1007.4
20260507181535 19 54 0.0 0.0 0.00 0.00 0.00 43 1007.6
20260507181031 19 12 8.0 9.7 0.00 0.00 0.00 42 1007.6
20260507180528 19 156 3.2 3.2 0.00 0.00 0.00 43 1007.4
20260507180025 19 82 1.6 3.2 0.00 0.00 0.00 43 1007.7
20260507175521 19 11 4.8 8.0 0.00 0.00 0.00 44 1007.6
20260507175019 19 38 1.6 3.2 0.00 0.00 0.00 44 1007.7
20260507174515 19 21 4.8 4.8 0.00 0.00 0.00 43 1007.7
20260507174013 18 51 0.0 0.0 0.00 0.00 0.00 44 1008.0
20260507173510 18 47 3.2 3.2 0.00 0.00 0.00 44 1008.2
20260507173008 17 50 1.6 1.6 0.00 0.00 0.00 46 1008.2
20260507172503 17 54 0.0 0.0 0.00 0.00 0.00 45 1008.3
20260507172000 18 106 0.0 1.6 0.00 0.00 0.00 45 1008.5
20260507171455 18 344 11.3 12.9 0.00 0.00 0.00 47 1008.4
20260507170953 18 14 3.2 4.8 0.00 0.00 0.00 45 1008.5
20260507170450 18 345 4.8 8.0 0.00 0.00 0.00 46 1008.6
20260507165946 17 141 6.4 8.0 0.00 0.00 0.00 45 1008.8
20260507165442 17 65 0.0 1.6 0.00 0.00 0.00 46 1008.9
20260507164938 18 354 8.0 9.7 0.00 0.00 0.00 45 1009.0
20260507164435 18 356 1.6 4.8 0.00 0.00 0.00 47 1009.1
20260507163932 17 67 4.8 8.0 0.00 0.00 0.00 46 1009.3
20260507163429 17 100 1.6 1.6 0.00 0.00 0.00 45 1009.4
20260507162926 17 62 6.4 8.0 0.00 0.00 0.00 45 1009.4
20260507162421 17 2 6.4 8.0 0.00 0.00 0.00 45 1009.3
20260507161919 16 36 4.8 4.8 0.00 0.00 0.00 46 1009.8
20260507161414 17 356 3.2 3.2 0.00 0.00 0.00 45 1009.6
20260507160912 17 28 3.2 4.8 0.00 0.00 0.00 46 1009.6
20260507160408 17 68 1.6 3.2 0.00 0.00 0.00 45 1009.6
20260507155904 17 58 1.6 3.2 0.00 0.00 0.00 45 1009.8
20260507155400 16 51 4.8 4.8 0.00 0.00 0.00 48 1009.8
20260507154857 16 11 6.4 8.0 0.00 0.00 0.00 48 1010.2
20260507154354 15 61 1.6 1.6 0.00 0.00 0.00 49 1010.1
20260507153851 15 352 3.2 8.0 0.00 0.00 0.00 50 1010.2
20260507153347 16 98 1.6 1.6 0.00 0.00 0.00 47 1009.9
20260507152844 16 119 1.6 4.8 0.00 0.00 0.00 50 1010.3
20260507152340 16 59 4.8 4.8 0.00 0.00 0.00 49 1010.2
20260507151837 15 86 8.0 9.7 0.00 0.00 0.00 53 1010.1
20260507151333 15 107 1.6 3.2 0.00 0.00 0.00 49 1010.4
20260507150830 15 79 3.2 3.2 0.00 0.00 0.00 51 1010.4
20260507150327 15 40 4.8 4.8 0.00 0.00 0.00 52 1010.6
20260507145823 15 258 3.2 4.8 0.00 0.00 0.00 53 1010.6
20260507145319 15 127 3.2 4.8 0.00 0.00 0.00 54 1010.9
20260507144816 14 349 3.2 4.8 0.00 0.00 0.00 53 1010.8
20260507144314 14 91 4.8 8.0 0.00 0.00 0.00 53 1010.7
20260507143810 14 36 3.2 4.8 0.00 0.00 0.00 53 1010.8
20260507143308 13 61 1.6 3.2 0.00 0.00 0.00 55 1011.1
20260507142803 13 49 1.6 3.2 0.00 0.00 0.00 59 1010.9
20260507142300 13 59 0.0 0.0 0.00 0.00 0.00 58 1011.0
20260507141756 13 22 4.8 8.0 0.00 0.00 0.00 58 1011.1
20260507141254 12 25 4.8 4.8 0.00 0.00 0.00 57 1011.5
20260507140749 12 46 1.6 1.6 0.00 0.00 0.00 57 1011.4
20260507140247 12 0 3.2 4.8 0.00 0.00 0.00 57 1011.5
20260507135744 12 47 0.0 0.0 0.00 0.00 0.00 57 1011.8
20260507135242 12 56 3.2 3.2 0.00 0.00 0.00 57 1011.9
20260507134737 12 36 4.8 8.0 0.00 0.00 0.00 57 1011.9
20260507134234 12 52 0.0 1.6 0.00 0.00 0.00 57 1012.0
20260507133730 12 50 3.2 4.8 0.00 0.00 0.00 56 1012.0
20260507133227 12 38 1.6 1.6 0.00 0.00 0.00 56 1012.1
20260507132725 12 5 4.8 8.0 0.00 0.00 0.00 57 1012.0
20260507132221 12 41 1.6 1.6 0.00 0.00 0.00 57 1012.0
20260507131718 12 20 4.8 4.8 0.00 0.00 0.00 56 1012.0
20260507131215 12 47 0.0 1.6 0.00 0.00 0.00 59 1011.9
20260507130712 12 37 4.8 4.8 0.00 0.00 0.00 57 1012.0
20260507130210 12 82 4.8 4.8 0.00 0.00 0.00 57 1011.8
20260507125708 12 47 1.6 3.2 0.00 0.00 0.00 57 1011.9
20260507125206 12 32 1.6 1.6 0.00 0.00 0.00 58 1011.8
20260507124702 12 51 0.0 1.6 0.00 0.00 0.00 58 1011.9
20260507124159 11 41 1.6 1.6 0.00 0.00 0.00 59 1012.0
20260507123657 11 46 1.6 1.6 0.00 0.00 0.00 59 1012.1
20260507123154 11 42 0.0 1.6 0.00 0.00 0.00 60 1011.9
20260507122649 11 62 0.0 0.0 0.00 0.00 0.00 59 1011.9
20260507122145 11 43 1.6 1.6 0.00 0.00 0.00 60 1011.9
20260507121641 11 63 1.6 1.6 0.00 0.00 0.00 59 1011.8
20260507121137 11 51 3.2 3.2 0.00 0.00 0.00 59 1012.0
20260507120634 11 60 0.0 1.6 0.00 0.00 0.00 59 1011.8
20260507120131 11 53 0.0 0.0 0.00 0.00 0.00 60 1011.8
20260507115627 11 37 1.6 1.6 0.00 0.00 0.00 60 1011.9
20260507115123 11 66 0.0 0.0 0.00 0.00 0.00 60 1011.4
20260507114619 11 66 0.0 0.0 0.00 0.00 0.00 60 1011.5
20260507114116 11 59 0.0 0.0 0.00 0.00 0.00 61 1011.5
20260507113613 11 48 0.0 1.6 0.00 0.00 0.00 61 1011.6
20260507113110 11 61 0.0 0.0 0.00 0.00 0.00 61 1011.4
20260507112608 11 31 3.2 3.2 0.00 0.00 0.00 61 1011.2
20260507112105 11 57 1.6 1.6 0.00 0.00 0.00 60 1011.3
20260507111602 11 71 1.6 1.6 0.00 0.00 0.00 61 1011.1
20260507111058 11 30 1.6 1.6 0.00 0.00 0.00 61 1011.0
20260507110554 11 42 1.6 3.2 0.00 0.00 0.00 61 1011.1
20260507110051 11 48 1.6 1.6 0.00 0.00 0.00 62 1011.2
20260507105548 11 73 1.6 1.6 0.00 0.00 0.00 61 1011.3
20260507105044 11 67 0.0 1.6 0.00 0.00 0.00 62 1011.1
20260507104542 11 52 1.6 3.2 0.00 0.00 0.00 62 1011.0
20260507104038 11 42 0.0 1.6 0.00 0.00 0.00 63 1011.0
20260507103534 11 61 1.6 1.6 0.00 0.00 0.00 63 1010.8
20260507103031 11 61 1.6 1.6 0.00 0.00 0.00 63 1010.6
20260507102528 11 37 1.6 1.6 0.00 0.00 0.00 64 1010.7
20260507102024 11 46 1.6 1.6 0.00 0.00 0.00 64 1010.5
20260507101519 11 34 1.6 3.2 0.00 0.00 0.00 64 1010.5
20260507101016 11 47 0.0 1.6 0.00 0.00 0.00 64 1010.5
20260507100513 11 19 3.2 3.2 0.00 0.00 0.00 64 1010.6
20260507100011 11 33 1.6 1.6 0.00 0.00 0.00 65 1010.5
20260507095509 11 59 3.2 4.8 0.00 0.00 0.00 66 1010.4
20260507095005 11 42 1.6 3.2 0.00 0.00 0.00 68 1010.4
20260507094502 11 30 3.2 3.2 0.00 0.00 0.00 71 1010.2
20260507093959 11 28 0.0 1.6 0.00 0.00 0.00 76 1010.0
20260507093456 12 47 1.6 1.6 0.00 0.00 0.00 77 1010.3
20260507092954 12 49 1.6 1.6 0.00 0.00 0.00 78 1010.3
20260507092451 12 43 1.6 1.6 0.00 0.00 0.00 78 1010.2
20260507091948 12 64 1.6 1.6 0.00 0.00 0.00 78 1010.3
20260507091444 12 47 1.6 1.6 0.00 0.00 0.00 78 1010.1
20260507090940 12 51 0.0 1.6 0.00 0.00 0.00 78 1010.2
20260507090436 12 53 0.0 0.0 0.00 0.00 0.00 78 1010.3
20260507085932 12 52 0.0 1.6 0.00 0.00 0.00 78 1009.9
20260507085430 12 86 0.0 0.0 0.00 0.00 0.00 78 1010.3
20260507084927 12 42 0.0 0.0 0.00 0.00 0.00 78 1010.3
20260507084424 12 53 0.0 1.6 0.00 0.00 0.00 78 1010.2
20260507083921 12 51 0.0 1.6 0.00 0.00 0.00 78 1010.1
20260507083417 12 46 0.0 0.0 0.00 0.00 0.00 77 1010.3
20260507082913 12 42 1.6 1.6 0.00 0.00 0.00 77 1010.4
20260507082409 12 39 1.6 1.6 0.00 0.00 0.00 77 1010.1
20260507081907 12 83 1.6 1.6 0.00 0.00 0.00 77 1010.1
20260507081403 12 7 1.6 3.2 0.00 0.00 0.00 77 1010.3
20260507080859 12 48 0.0 1.6 0.00 0.00 0.00 77 1010.2
20260507080356 12 48 1.6 1.6 0.00 0.00 0.00 77 1010.2
20260507075851 12 48 1.6 1.6 0.00 0.00 0.00 77 1010.0
20260507075347 12 66 0.0 0.0 0.00 0.00 0.00 77 1010.0
20260507074844 12 64 0.0 1.6 0.00 0.00 0.00 77 1009.7
20260507074341 12 57 0.0 0.0 0.00 0.00 0.00 77 1009.8
20260507073838 12 47 0.0 1.6 0.00 0.00 0.00 77 1009.9
20260507073335 12 61 0.0 0.0 0.00 0.00 0.00 78 1009.6
20260507072832 12 42 0.0 0.0 0.00 0.00 0.00 78 1009.5
20260507072330 12 45 0.0 1.6 0.00 0.00 0.00 78 1009.6
20260507071827 12 43 0.0 1.6 0.00 0.00 0.00 78 1009.8
20260507071324 12 44 0.0 0.0 0.00 0.00 0.00 78 1009.7
20260507070820 12 45 0.0 0.0 0.00 0.00 0.00 78 1009.6
20260507070318 12 45 0.0 0.0 0.00 0.00 0.00 78 1009.6
20260507065814 12 45 0.0 0.0 0.00 0.00 0.00 78 1009.7
20260507065311 12 84 0.0 0.0 0.00 0.00 0.00 78 1009.7
20260507064808 12 59 0.0 0.0 0.00 0.00 0.00 77 1009.8
20260507064307 12 18 1.6 3.2 0.00 0.00 0.00 77 1009.7
20260507063804 12 51 0.0 0.0 0.00 0.00 0.00 77 1009.8
20260507063301 12 39 1.6 1.6 0.00 0.00 0.00 77 1009.8
20260507062758 12 46 1.6 1.6 0.00 0.00 0.00 76 1010.0
20260507062255 12 45 1.6 3.2 0.00 0.00 0.00 76 1010.1
20260507061753 12 28 6.4 9.7 0.00 0.00 0.00 76 1010.0
20260507061250 12 52 1.6 1.6 0.00 0.00 0.00 76 1009.9
20260507060748 12 44 0.0 0.0 0.00 0.00 0.00 76 1010.0
20260507060245 12 39 1.6 1.6 0.00 0.00 0.00 76 1010.4
20260507055741 12 54 1.6 1.6 0.00 0.00 0.00 76 1010.5
20260507055237 12 7 3.2 3.2 0.00 0.00 0.00 76 1010.4
20260507054733 12 54 0.0 0.0 0.00 0.00 0.00 77 1010.2
20260507054230 12 50 0.0 1.6 0.00 0.00 0.00 77 1010.4
20260507053727 12 55 0.0 0.0 0.00 0.00 0.00 77 1010.3
20260507053225 13 52 1.6 1.6 0.00 0.00 0.00 78 1010.3
20260507052724 13 62 0.0 0.0 0.00 0.00 0.00 78 1010.4
20260507052219 13 64 1.6 1.6 0.00 0.00 0.00 78 1010.0
20260507051718 13 26 1.6 3.2 0.00 0.00 0.00 78 1010.0
20260507051214 13 60 1.6 3.2 0.00 0.00 0.00 78 1009.8
20260507050711 13 35 0.0 1.6 0.00 0.00 0.00 78 1010.1
20260507050208 13 71 1.6 3.2 0.00 0.00 0.00 79 1010.0
20260507045705 13 33 4.8 8.0 0.00 0.00 0.00 79 1009.9
20260507045201 13 99 1.6 3.2 0.00 0.00 0.00 79 1009.9
20260507044658 13 20 3.2 3.2 0.00 0.00 0.00 80 1009.7
20260507044154 13 37 3.2 8.0 0.00 0.00 0.00 79 1009.7
20260507043651 13 48 1.6 3.2 0.00 0.00 0.00 80 1009.7
20260507043148 13 44 0.0 1.6 0.00 0.00 0.00 82 1009.9
20260507042644 13 350 6.4 9.7 0.00 0.00 0.00 82 1009.6
20260507042139 13 21 4.8 9.7 0.00 0.00 0.00 83 1008.9
20260507041637 13 34 4.8 8.0 0.00 0.00 0.00 83 1009.1
20260507041133 13 41 3.2 4.8 0.00 0.00 0.00 82 1009.6
20260507040630 13 45 0.0 1.6 0.00 0.00 0.00 83 1009.5
20260507040127 13 32 3.2 3.2 0.00 0.00 0.00 82 1009.9
20260507035622 13 46 0.0 1.6 0.00 0.38 0.38 82 1009.3
20260507035118 13 32 1.6 3.2 0.00 0.38 0.38 82 1009.4
20260507034615 13 29 1.6 1.6 0.00 0.38 0.38 81 1009.1
20260507034113 14 13 3.2 4.8 0.00 0.38 0.38 81 1009.4
20260507033611 14 66 0.0 0.0 0.00 0.38 0.38 81 1009.7
20260507033108 14 45 3.2 3.2 0.00 0.38 0.38 81 1009.7
20260507032606 14 343 6.4 9.7 0.00 0.38 0.38 81 1009.6
20260507032102 14 142 1.6 3.2 0.00 0.38 0.38 80 1009.5
20260507031558 15 233 3.2 8.0 0.00 0.38 0.38 80 1009.5
20260507031055 15 51 0.0 1.6 0.00 0.38 0.38 80 1009.4
20260507030551 15 351 3.2 3.2 0.00 0.38 0.38 79 1009.0
20260507030050 15 29 1.6 3.2 0.00 0.38 0.38 79 1009.0
20260507025547 15 91 0.0 1.6 0.00 0.38 0.38 78 1009.3
20260507025044 15 28 3.2 4.8 0.00 0.38 0.38 78 1009.5
20260507024542 15 42 1.6 3.2 0.00 0.38 0.38 78 1009.4
20260507024038 15 325 8.0 12.9 0.00 0.38 0.38 78 1009.6
20260507023533 15 55 1.6 3.2 0.00 0.38 0.38 78 1009.4
20260507023032 15 335 4.8 4.8 0.00 0.38 0.38 78 1009.4
20260507022528 15 356 0.0 3.2 0.00 0.38 0.38 78 1009.2
20260507022023 15 12 1.6 4.8 0.00 0.38 0.38 78 1009.0
20260507021520 15 356 4.8 8.0 0.00 0.38 0.38 78 1008.7
20260507021016 15 71 1.6 3.2 0.00 0.38 0.38 78 1008.8
20260507020514 15 72 1.6 3.2 0.00 0.38 0.38 78 1008.7
20260507020010 15 23 1.6 1.6 0.00 0.38 0.38 78 1008.7
20260507015509 16 76 1.6 3.2 0.00 0.38 0.38 78 1008.8
20260507015006 16 2 0.0 1.6 0.00 0.38 0.38 78 1009.1
20260507014502 16 38 1.6 3.2 0.00 0.38 0.38 77 1008.8
20260507013958 16 49 1.6 3.2 0.00 0.38 0.38 78 1008.5